Погода в Заречном

Украина / Николаевская область     46°53′48″N   31°54′38″E
темп.,
°C
ветер,
м/с
пор.,
м/с
влажн.,
%
обл.,
%
осадки,
мм/ч
давл.,
гПа
погр.,
м
29 ноября, пн
пн2923:00+11ю499580 0.0 1003359
02:00+12ю51086100 0.0 1002516
05:00+11ююв7159573 0.0 1000501
08:00+13ю91783100 0.0 997835
11:00+14ю101875100 0.1 995738
14:00+14ююз111776100 0.8 9911080
17:00+12юз8158995 1.6 989589
20:00+11зюз8148394 1.7 992609
30 ноября, вт
вт3023:00+9зсз7138140 0.1 995629
02:00+6з487712 0.1 999326
05:00+5з49774 0.0 1001322
08:00+3зсз397174 0.0 1003337
11:00+6ссз4652100 0.0 1003539
14:00+5ссз4552100 0.0 1001655
17:00+4ссз5961100 0.1 1000769
20:00+4ссз71261100 0.1 1000891
1 декабря, ср
ср123:00+2зсз510655 0.0 1003475
02:000зюз49700 0.0 1004259
05:00+1юз6136691 0.0 1003445
08:00+2зюз61558100 0.0 1003661
11:00+5зюз812505 0.0 1003898
14:00+7зсз8124826 0.0 10031558
17:00+5зсз6106833 0.0 1006618
20:00+2зсз38785 0.0 1009319
2 декабря, чт
чт223:00+1зюз23785 0.0 101068
02:00+1ююз2380100 0.0 101159
05:00+3ю498085 0.0 1010161
08:00+6ююз513865 0.0 1010337
11:00+10ююз914705 0.0 1009953
14:00+11ююз9156563 0.0 1007971
17:00+9ююз71387100 0.0 1008519
20:00+8ююз5118998 0.0 1008365
3 декабря, пт
пт323:00+7ююз512885 0.0 1008305
02:00+9ю7149484 0.0 1007499
05:00+10ю7149269 0.0 1006605
08:00+10ю7149276 0.0 1007658
11:00+12ююз9147967 0.0 1006743
14:00+12ююз101580100 0.0 1004826
17:00+12ююз81385100 0.0 1004791
20:00+12ююз81489100 0.0 1004669